Location: Ecklingerode
(51.5036°N, 10.3122°E)
Time: 05:53:34
(UTC+00:00)

Cosmos 1302 Rocket - Pass Details

Date: 29 October 2020
Orbit: 756 x 777 km, 74.0° (Epoch: 01 December)

Event Time Altitude Azimuth Distance (km) Brightness Sun altitude
Rises 16:56:22 0° 191° (S) 3,228 7.5 -9.8°
Reaches altitude 10° 16:58:44 10° 188° (S) 2,309 6.7 -10.2°
Maximum altitude 17:03:54 60° 109° (ESE) 882 4.1 -11.0°
Drops below altitude 10° 17:09:07 10° 30° (NNE) 2,336 6.2 -11.8°
Sets 17:11:32 0° 28° (NNE) 3,269 6.9 -12.1°
